EHI
0 0 0 0 0 0 0 0 0 0 0 0 0 0 0 0 0 0 0 0 0 0 0 0 0 0 0 0 0 0 0 0 0 0 0 0 0 0
0 0 0 0 0 0 0 0 0 0 0 0 0 0 0 0 0 0 0 0 0 0 0 0 0 0 0 0 0 0 0 0 0 0 0 0 0 0
0 0 0 0 0 0 0 0 0 0 0 0 0 0 0 0 0 0 0 0 0 0 0 0 0 0 0 0 0 0 0 0 0 0 0 0 0 0
0 0 0 0 0 0 0 0 0 0 0 0 0 0 0 0 0 0 0 0 0 0 0 0 0 0 0 0 0 0 0 0 0 0 0 0 0 0
0 0 0 0 0 0 0 0 0 0 0 0 0 0 0 0 0 0 0 0 0 0 0 0 0 0 0 0 0 0 0 0 0 0 0 0 0 0
0 0 0 0 0 0 0 0 0 0 0 0 0 0 0 0 0 0 0 0 0 0 0 0 0 0 0 0 0 0 0 0 0 0 0 0 0 0
0 0 0 0 0 0 0 0 0 0 0 0 0 0 0 0 0 0 0 0 0 0 0 0 0 0 0 0 0 0 0 0 0 0 0 0 0 0
0 0 0 0 0 0 0 0 0 0 0 0 0 0 0 0 0 0 0 0 0 0 0 0 0 0 0 0 0 0 0 0 0 0 0 0 0 0
0 0 0 0 0 0 0 0 0 0 0 0 0 0 0 0 0 0 0 0 0 0 0 0 0 0 0 0 0 0 0 0 0 0 0 0 0 0
0 0 0 0 0 0 0 0 0 0 0 0 0 0 0 0 0 0 0 0 0 0 0 0 0 0 0 0 0 0 0 0 0 0 0 0 0 0
0 0 0 0 0 0 0 0 0 0 0 0 0 0 0 0 0 0 0 0 0 0 0 0 0 0 0 0 0 0 0 0 0 0 0 0 0 0
0 0 0 0 0 0 0 0 0 0 0 0 0 0 0 0 0 0 0 0 0 0 0 0 0 0 0 0 0 0 0 0 0 0 0 0 0 0
0 0 0 0 0 0 0 0 0 0 0 0 0 0 0 0 0 0 0 0 0 0 0 0 0 0 0 0 0 0 0 0 0 0 0 0 0 0
0 0 0 0 0 0 0 0 0 0 0 0 0 0 0 0 0 0 0 0 0 0 0 0 0 0 0 0 0 0 0 0 0 0 0 0 0 0
0 0 0 0 0 0 0 0 0 0 0 0 0 0 0 0 0 0 0 0 0 0 0 0 0 0 0 0 0 0 0 0 0 0 0 0 0 0
0 0 0 0 0 0 0 0 0 0 0 0 0 0 0 0 0 0 0 0 0 0 0 0 0 0 0 0 0 0 0 0 0 0 0 0 0 0
0 0 0 0 0 0 0 0 0 0 0 0 0 0 0 0 0 0 0 0 0 0 0 0 0 0 0 0 0 0 0 0 0 0 0 0 0 0
0 0 0 0 0 0 0 0 0 0 0 0 0 0 0 0 0 0 0 0 0 0 0 0 0 0 0 0 0 0 0 0 0 0 0 0 0 0
0 0 0 0 0 0 0 0 0 0 0 0 0 0 0 0 0 0 0 0 0 0 0 0 0 0 0 0 0 0 0 0 0 0 0 0 0 0
0 0 0 0 0 0 0 0 0 0 0 0 0 0 0 0 0 0 0 0 0 0 0 0 0 0 0 0 0 0 0 0 0 0 0 0 0 0
0 0 0 0 0 0 0 0 0 0 0 0 0 0 0 0 0 0 0 0 0 0 0 0 0 0 0 0 0 0 0 0 0 0 0 0 0 0
0 0 0 0 0 0 0 0 0 0 0 0 0 0 0 0 0 0 0 0 0 0 0 0 0 0 0 0 0 0 0 0 0 0 0 0 0 0
0 0 0 0 0 0 0 0 0 0 0 0 0 0 0 0 0 0 0 0 0 0 0 0 0 0 0 0 0 0 0 0 0 0 0 0 0 0
Wind_Speed
3 4 3 3 2 2 2 3 4 6 6 4 3 2 3 4 6 6 7 10 13 14 15 14 13 13 13 13 14 15 15 15 15 16 15 15 15 14
3 4 4 3 3 2 3 3 3 5 6 3 3 3 4 4 6 6 7 10 12 14 14 14 14 14 13 13 13 14 15 16 17 17 17 16 15 14
4 4 5 4 3 3 3 3 3 4 7 5 3 3 4 5 5 5 6 7 7 13 15 15 15 14 14 14 14 15 16 17 18 18 17 17 16 15
5 5 5 5 4 4 3 4 4 4 5 8 5 3 5 5 5 6 6 6 6 11 14 15 15 15 15 14 14 15 16 16 17 18 18 18 17 16
5 5 5 5 5 4 4 4 4 4 4 6 6 4 4 4 5 5 6 5 6 8 12 14 15 15 15 15 15 15 16 16 16 18 17 17 17 17
4 4 5 5 5 6 5 5 4 5 5 5 6 5 4 3 4 5 5 5 6 6 8 9 12 14 16 16 16 16 16 16 16 18 18 17 16 17
5 5 5 7 9 7 6 5 5 5 5 5 6 5 4 3 4 4 6 6 6 4 4 5 6 7 9 13 15 15 15 17 18 18 19 18 17 17
5 5 6 7 9 11 12 11 8 6 6 5 6 6 7 6 5 6 6 6 6 3 4 6 5 7 7 7 12 15 15 16 18 18 18 19 19 18
5 5 6 7 9 7 10 11 10 11 10 7 8 8 8 7 7 7 7 7 8 5 5 8 5 7 6 7 13 15 16 17 17 18 17 19 19 19
5 5 6 7 7 8 7 7 7 7 9 7 7 8 8 8 8 9 9 9 7 5 6 8 6 6 6 6 12 16 17 16 17 18 17 18 18 19
5 5 6 7 12 14 9 8 9 8 10 13 13 13 15 15 12 7 6 6 7 6 5 5 4 4 5 6 8 14 15 16 17 18 18 18 18 17
5 5 9 11 15 15 9 8 9 9 8 9 9 11 9 10 12 8 6 6 6 6 4 4 3 2 3 3 3 5 8 13 16 16 17 17 18 11
6 5 6 15 17 16 13 8 11 12 8 7 7 7 6 6 6 6 6 6 7 7 4 3 3 3 4 4 3 4 5 5 7 9 13 16 18 14
6 6 8 17 17 17 12 13 16 13 6 5 6 6 6 6 6 6 7 7 8 9 8 6 5 5 5 5 5 3 4 5 5 6 6 12 15 16
6 12 15 17 15 11 13 15 12 6 5 6 6 6 6 7 7 6 7 7 7 8 8 8 7 6 6 6 5 4 3 4 5 5 6 7 7 8
7 10 14 13 11 11 11 9 6 5 6 6 6 6 6 6 6 5 6 6 6 6 6 7 7 7 6 5 5 5 5 5 5 5 5 5 5 6
7 4 4 5 5 5 5 5 5 5 6 5 6 7 7 6 6 5 5 5 6 6 5 4 4 4 5 5 5 6 5 4 5 5 5 5 5 7
8 5 5 5 6 7 7 7 6 6 6 6 6 6 6 7 7 6 5 6 6 6 5 4 2 2 2 3 4 5 5 4 4 5 5 5 6 6
5 5 5 6 6 6 6 7 7 7 6 6 7 7 6 6 7 7 6 6 6 5 4 3 3 3 4 4 3 3 4 4 5 5 5 4 6 7
4 5 6 6 6 6 6 7 7 7 7 7 6 6 6 6 6 6 6 6 6 5 4 4 4 5 5 4 2 2 4 5 5 5 4 3 3 5
6 6 6 6 6 7 7 7 7 7 8 7 7 7 6 6 6 6 6 9 7 5 5 5 4 4 1 1 1 1 1 3 4 5 5 5 4 5
6 7 7 7 7 7 7 7 7 7 8 7 7 6 6 6 7 8 6 6 5 5 5 4 3 1 2 3 3 2 1 2 4 5 5 4 5 7
7 7 7 7 7 6 6 7 8 7 7 7 7 7 6 6 6 6 6 6 5 5 4 3 2 1 1 2 3 3 4 4 4 4 3 4 6 6
Wind_Direction
308 301 288 280 270 270 268 259 262 267 260 246 241 246 257 254 257 246 246 244 244 246 246 247 247 242 233 230 231 226 223 221 218 219 222 225 229 233
323 324 312 304 295 278 266 261 251 258 267 262 253 276 262 263 264 256 251 254 244 245 246 245 243 239 233 228 227 225 222 221 219 219 223 225 226 229
341 332 321 316 310 302 288 276 265 256 264 275 272 280 264 265 271 261 257 248 246 246 246 244 242 238 233 228 227 226 223 221 219 219 222 225 225 228
338 335 334 329 323 315 305 292 279 268 266 278 281 276 266 267 266 265 265 259 251 251 247 246 242 236 231 228 227 225 222 220 218 217 220 222 221 223
334 336 333 329 322 312 305 297 294 292 275 275 279 275 270 279 278 274 272 263 263 257 249 245 242 239 234 230 229 226 222 220 219 214 214 217 218 218
338 337 333 329 324 320 314 309 307 301 293 283 280 277 269 275 269 270 273 260 264 266 257 250 245 242 239 236 231 226 221 219 219 217 213 212 214 217
335 332 329 328 329 326 322 318 317 304 300 297 291 286 278 283 273 272 272 271 265 252 255 253 248 240 234 234 230 226 223 220 218 218 215 211 212 214
328 327 326 328 328 327 324 320 315 306 301 293 291 290 285 276 272 270 275 275 268 236 247 260 247 249 241 229 231 227 225 224 220 218 216 212 212 213
322 320 322 325 327 319 316 316 312 310 304 293 287 287 286 283 280 273 266 264 265 257 251 258 241 246 247 243 236 232 228 224 220 217 216 213 211 211
311 308 309 311 314 317 310 307 300 299 298 291 279 281 285 282 270 270 268 271 272 261 233 251 246 248 248 239 236 232 228 224 219 218 216 212 209 208
307 307 310 305 314 321 317 308 303 299 300 299 296 294 296 297 293 283 274 269 274 265 231 238 245 261 256 244 236 228 227 224 220 218 217 211 207 203
308 304 312 315 317 320 313 306 303 302 303 303 300 299 294 291 292 275 267 268 275 270 232 221 238 243 268 245 224 226 227 225 222 220 216 209 200 192
310 309 307 318 318 318 315 303 301 305 303 300 297 293 289 283 280 272 262 257 261 262 252 234 245 239 243 268 257 234 223 220 214 214 210 204 196 188
307 304 306 316 319 320 318 313 313 313 302 299 295 293 293 289 284 277 269 258 253 256 256 241 244 235 241 255 256 230 217 212 206 204 199 199 197 193
305 310 314 318 321 320 319 320 320 311 303 299 299 296 289 285 286 283 279 269 263 257 252 245 241 236 231 240 241 227 225 217 203 196 190 188 187 183
309 311 317 319 318 316 319 319 313 306 307 299 299 294 291 288 285 285 287 287 280 276 253 241 236 232 240 241 232 230 214 199 192 193 185 184 179 178
316 310 312 315 316 313 310 308 310 313 310 302 299 300 302 302 298 292 281 283 275 276 279 267 244 239 239 228 229 223 212 208 192 181 177 184 186 182
324 315 313 313 313 314 314 313 310 308 306 303 299 296 298 299 299 296 285 277 277 276 272 268 264 281 292 279 227 211 206 206 189 180 177 183 189 182
322 309 308 309 309 310 309 308 307 306 303 300 298 297 296 295 295 296 294 287 277 272 268 257 241 233 240 254 262 214 196 189 180 185 184 177 185 181
312 309 308 307 307 307 306 305 304 304 302 301 299 297 296 295 294 293 291 288 285 279 275 258 237 229 231 234 241 246 205 187 184 184 171 134 122 145
311 307 305 304 303 303 302 300 299 299 299 299 297 296 296 295 294 292 289 292 291 279 274 270 258 249 234 175 197 229 213 193 181 172 159 148 147 157
306 305 304 302 301 300 300 299 298 298 298 296 295 294 293 289 289 291 291 291 285 280 280 280 274 246 207 204 205 183 152 119 107 110 125 144 164 176
305 304 301 298 296 296 296 296 295 293 294 295 294 293 291 288 286 284 287 286 284 281 278 277 277 258 223 191 178 162 151 146 129 115 90 96 108 114